contact:dominique.lefevre@mio.osupytheas.fr, maurice.libes@osupytheas.fr, didier.mallarino@osupytheas.fr
Project:EMSO http://www.emso-fr.org/EMSO-France
Depth: 2436.0 m
Title:EMSO Ligure Ouest : Data MII capteur MICROCAT
DateTime_Computer,Latitude,Longitude,Temperature,Conductivity,Pressure,DateTime_Instrument
DateTime_Computer,Latitude,Longitude,degC,S m-1,dbar,DateTime_Instrument
2023-06-14T00:02:07Z,42.805,6.029,13.3021,4.60080,2470.646,2023-6-14T02:04:21Z
2023-06-14T00:05:10Z,42.805,6.029,13.3021,4.60079,2470.693,2023-6-14T02:07:24Z
2023-06-14T00:08:13Z,42.805,6.029,13.3023,4.60079,2470.707,2023-6-14T02:10:27Z
2023-06-14T00:11:16Z,42.805,6.029,13.3023,4.60081,2470.693,2023-6-14T02:13:30Z
2023-06-14T00:14:20Z,42.805,6.029,13.3016,4.60080,2470.707,2023-6-14T02:16:34Z
2023-06-14T00:17:23Z,42.805,6.029,13.3020,4.60079,2470.717,2023-6-14T02:19:37Z
2023-06-14T00:20:26Z,42.805,6.029,13.3024,4.60080,2470.693,2023-6-14T02:22:40Z
2023-06-14T00:23:29Z,42.805,6.029,13.3022,4.60079,2470.707,2023-6-14T02:25:43Z
2023-06-14T00:26:32Z,42.805,6.029,13.3021,4.60077,2470.73,2023-6-14T02:28:46Z
2023-06-14T00:29:35Z,42.805,6.029,13.3021,4.60076,2470.73,2023-6-14T02:31:49Z
2023-06-14T00:32:38Z,42.805,6.029,13.3016,4.60075,2470.717,2023-6-14T02:34:52Z
2023-06-14T00:35:41Z,42.805,6.029,13.3022,4.60076,2470.693,2023-6-14T02:37:55Z
2023-06-14T00:38:44Z,42.805,6.029,13.3027,4.60081,2470.73,2023-6-14T02:40:58Z
2023-06-14T00:41:47Z,42.805,6.029,13.3021,4.60077,2470.717,2023-6-14T02:44:01Z
2023-06-14T00:44:50Z,42.805,6.029,13.3019,4.60077,2470.73,2023-6-14T02:47:04Z
2023-06-14T00:47:53Z,42.805,6.029,13.3019,4.60076,2470.707,2023-6-14T02:50:07Z
2023-06-14T00:50:57Z,42.805,6.029,13.3020,4.60077,2470.73,2023-6-14T02:53:11Z
2023-06-14T00:54:00Z,42.805,6.029,13.3019,4.60077,2470.693,2023-6-14T02:56:14Z
2023-06-14T00:57:03Z,42.805,6.029,13.3019,4.60079,2470.74,2023-6-14T02:59:17Z
2023-06-14T01:00:06Z,42.805,6.029,13.3021,4.60079,2470.74,2023-6-14T03:02:20Z
2023-06-14T01:03:09Z,42.805,6.029,13.3021,4.60077,2470.74,2023-6-14T03:05:23Z
2023-06-14T01:06:12Z,42.805,6.029,13.3021,4.60077,2470.74,2023-6-14T03:08:26Z
2023-06-14T01:09:15Z,42.805,6.029,13.3020,4.60078,2470.717,2023-6-14T03:11:29Z
2023-06-14T01:12:18Z,42.805,6.029,13.3020,4.60076,2470.74,2023-6-14T03:14:32Z
2023-06-14T01:15:21Z,42.805,6.029,13.3020,4.60077,2470.73,2023-6-14T03:17:35Z
2023-06-14T01:18:24Z,42.805,6.029,13.3023,4.60079,2470.74,2023-6-14T03:20:38Z
2023-06-14T01:21:27Z,42.805,6.029,13.3019,4.60078,2470.703,2023-6-14T03:23:41Z
2023-06-14T01:24:30Z,42.805,6.029,13.3020,4.60078,2470.73,2023-6-14T03:26:44Z
2023-06-14T01:27:33Z,42.805,6.029,13.3021,4.60079,2470.754,2023-6-14T03:29:48Z
2023-06-14T01:30:37Z,42.805,6.029,13.3021,4.60077,2470.74,2023-6-14T03:32:51Z
2023-06-14T01:33:40Z,42.805,6.029,13.3021,4.60078,2470.763,2023-6-14T03:35:54Z
2023-06-14T01:36:43Z,42.805,6.029,13.3017,4.60079,2470.74,2023-6-14T03:38:57Z
2023-06-14T01:39:46Z,42.805,6.029,13.3021,4.60077,2470.74,2023-6-14T03:42:00Z
2023-06-14T01:42:49Z,42.805,6.029,13.3015,4.60077,2470.74,2023-6-14T03:45:03Z
2023-06-14T01:45:52Z,42.805,6.029,13.3019,4.60079,2470.754,2023-6-14T03:48:06Z
2023-06-14T01:48:55Z,42.805,6.029,13.3022,4.60076,2470.74,2023-6-14T03:51:09Z
2023-06-14T01:51:58Z,42.805,6.029,13.3021,4.60076,2470.763,2023-6-14T03:54:12Z
2023-06-14T01:55:01Z,42.805,6.029,13.3019,4.60077,2470.763,2023-6-14T03:57:15Z
2023-06-14T01:58:04Z,42.805,6.029,13.3020,4.60079,2470.777,2023-6-14T04:00:18Z
2023-06-14T02:01:07Z,42.805,6.029,13.3020,4.60077,2470.787,2023-6-14T04:03:21Z
2023-06-14T02:04:10Z,42.805,6.029,13.3023,4.60078,2470.754,2023-6-14T04:06:25Z
2023-06-14T02:07:14Z,42.805,6.029,13.3021,4.60078,2470.777,2023-6-14T04:09:28Z
2023-06-14T02:10:17Z,42.805,6.029,13.3020,4.60077,2470.763,2023-6-14T04:12:31Z
2023-06-14T02:13:20Z,42.805,6.029,13.3024,4.60077,2470.787,2023-6-14T04:15:34Z
2023-06-14T02:16:23Z,42.805,6.029,13.3021,4.60077,2470.847,2023-6-14T04:18:37Z
2023-06-14T02:19:26Z,42.805,6.029,13.3018,4.60079,2470.74,2023-6-14T04:21:40Z
2023-06-14T02:22:29Z,42.805,6.029,13.3024,4.60079,2470.75,2023-6-14T04:24:43Z
2023-06-14T02:25:32Z,42.805,6.029,13.3019,4.60079,2470.763,2023-6-14T04:27:46Z
2023-06-14T02:28:35Z,42.805,6.029,13.3024,4.60077,2470.763,2023-6-14T04:30:49Z
2023-06-14T02:31:38Z,42.805,6.029,13.3019,4.60079,2470.763,2023-6-14T04:33:52Z
2023-06-14T02:34:41Z,42.805,6.029,13.3021,4.60077,2470.773,2023-6-14T04:36:55Z
2023-06-14T02:37:44Z,42.805,6.029,13.3021,4.60081,2470.777,2023-6-14T04:39:58Z
2023-06-14T02:40:47Z,42.805,6.029,13.3021,4.60079,2470.81,2023-6-14T04:43:02Z
2023-06-14T02:43:51Z,42.805,6.029,13.3022,4.60079,2470.787,2023-6-14T04:46:05Z
2023-06-14T02:46:54Z,42.805,6.029,13.3020,4.60076,2470.763,2023-6-14T04:49:08Z
2023-06-14T02:49:57Z,42.805,6.029,13.3022,4.60077,2470.8,2023-6-14T04:52:11Z
2023-06-14T02:53:00Z,42.805,6.029,13.3022,4.60076,2470.777,2023-6-14T04:55:14Z
2023-06-14T02:56:03Z,42.805,6.029,13.3021,4.60076,2470.81,2023-6-14T04:58:17Z
2023-06-14T02:59:06Z,42.805,6.029,13.3018,4.60077,2470.787,2023-6-14T05:01:20Z
2023-06-14T03:02:09Z,42.805,6.029,13.3019,4.60078,2470.8,2023-6-14T05:04:23Z
2023-06-14T03:05:12Z,42.805,6.029,13.3020,4.60077,2470.787,2023-6-14T05:07:26Z
2023-06-14T03:08:15Z,42.805,6.029,13.3020,4.60077,2470.787,2023-6-14T05:10:29Z
2023-06-14T03:11:18Z,42.805,6.029,13.3022,4.60076,2470.81,2023-6-14T05:13:32Z
2023-06-14T03:14:21Z,42.805,6.029,13.3019,4.60076,2470.763,2023-6-14T05:16:35Z
2023-06-14T03:17:24Z,42.805,6.029,13.3022,4.60082,2470.777,2023-6-14T05:19:39Z
2023-06-14T03:20:28Z,42.805,6.029,13.3022,4.60079,2470.81,2023-6-14T05:22:42Z
2023-06-14T03:23:31Z,42.805,6.029,13.3021,4.60079,2470.824,2023-6-14T05:25:45Z
2023-06-14T03:26:34Z,42.805,6.029,13.3020,4.60079,2470.787,2023-6-14T05:28:48Z
2023-06-14T03:29:37Z,42.805,6.029,13.3020,4.60079,2470.833,2023-6-14T05:31:51Z
2023-06-14T03:32:40Z,42.805,6.029,13.3025,4.60079,2470.787,2023-6-14T05:34:54Z
2023-06-14T03:35:43Z,42.805,6.029,13.3023,4.60076,2470.81,2023-6-14T05:37:57Z
2023-06-14T03:38:46Z,42.805,6.029,13.3021,4.60079,2470.833,2023-6-14T05:41:00Z
2023-06-14T03:41:49Z,42.805,6.029,13.3019,4.60078,2470.833,2023-6-14T05:44:03Z
2023-06-14T03:44:52Z,42.805,6.029,13.3021,4.60077,2470.824,2023-6-14T05:47:06Z
2023-06-14T03:47:55Z,42.805,6.029,13.3021,4.60077,2470.81,2023-6-14T05:50:09Z
2023-06-14T03:50:58Z,42.805,6.029,13.3017,4.60077,2470.81,2023-6-14T05:53:12Z
2023-06-14T03:54:02Z,42.805,6.029,13.3024,4.60078,2470.81,2023-6-14T05:56:16Z
2023-06-14T03:57:05Z,42.805,6.029,13.3019,4.60078,2470.857,2023-6-14T05:59:19Z
2023-06-14T04:00:08Z,42.805,6.029,13.3021,4.60080,2470.824,2023-6-14T06:02:22Z
2023-06-14T04:03:11Z,42.805,6.029,13.3016,4.60079,2470.81,2023-6-14T06:05:25Z
2023-06-14T04:06:14Z,42.805,6.029,13.3023,4.60077,2470.833,2023-6-14T06:08:28Z
2023-06-14T04:09:17Z,42.805,6.029,13.3022,4.60078,2470.833,2023-6-14T06:11:31Z
2023-06-14T04:12:20Z,42.805,6.029,13.3024,4.60078,2470.833,2023-6-14T06:14:34Z
2023-06-14T04:15:23Z,42.805,6.029,13.3023,4.60076,2470.787,2023-6-14T06:17:37Z
2023-06-14T04:18:26Z,42.805,6.029,13.3021,4.60078,2470.81,2023-6-14T06:20:40Z
2023-06-14T04:21:29Z,42.805,6.029,13.3025,4.60078,2470.81,2023-6-14T06:23:43Z
2023-06-14T04:24:32Z,42.805,6.029,13.3021,4.60077,2470.81,2023-6-14T06:26:46Z
2023-06-14T04:27:35Z,42.805,6.029,13.3020,4.60081,2470.81,2023-6-14T06:29:49Z
2023-06-14T04:30:39Z,42.805,6.029,13.3021,4.60079,2470.773,2023-6-14T06:32:53Z
2023-06-14T04:33:42Z,42.805,6.029,13.3022,4.60077,2470.787,2023-6-14T06:35:56Z
2023-06-14T04:36:45Z,42.805,6.029,13.3023,4.60077,2470.787,2023-6-14T06:38:59Z
2023-06-14T04:39:48Z,42.805,6.029,13.3021,4.60077,2470.847,2023-6-14T06:42:02Z
2023-06-14T04:42:51Z,42.805,6.029,13.3021,4.60078,2470.824,2023-6-14T06:45:05Z
2023-06-14T04:45:54Z,42.805,6.029,13.3019,4.60078,2470.824,2023-6-14T06:48:08Z
2023-06-14T04:48:57Z,42.805,6.029,13.3025,4.60079,2470.81,2023-6-14T06:51:11Z
2023-06-14T04:52:00Z,42.805,6.029,13.3017,4.60077,2470.787,2023-6-14T06:54:14Z
2023-06-14T04:55:03Z,42.805,6.029,13.3021,4.60080,2470.824,2023-6-14T06:57:17Z
2023-06-14T04:58:06Z,42.805,6.029,13.3021,4.60077,2470.787,2023-6-14T07:00:20Z
2023-06-14T05:01:09Z,42.805,6.029,13.3020,4.60077,2470.824,2023-6-14T07:03:23Z
2023-06-14T05:04:12Z,42.805,6.029,13.3021,4.60076,2470.81,2023-6-14T07:06:26Z
2023-06-14T05:07:15Z,42.805,6.029,13.3021,4.60076,2470.81,2023-6-14T07:09:30Z
2023-06-14T05:10:19Z,42.805,6.029,13.3021,4.60078,2470.833,2023-6-14T07:12:33Z
2023-06-14T05:13:22Z,42.805,6.029,13.3019,4.60076,2470.833,2023-6-14T07:15:36Z
2023-06-14T05:16:25Z,42.805,6.029,13.3023,4.60077,2470.796,2023-6-14T07:18:39Z
2023-06-14T05:19:28Z,42.805,6.029,13.3020,4.60077,2470.824,2023-6-14T07:21:42Z
2023-06-14T05:22:31Z,42.805,6.029,13.3018,4.60077,2470.787,2023-6-14T07:24:45Z
2023-06-14T05:25:34Z,42.805,6.029,13.3021,4.60077,2470.777,2023-6-14T07:27:48Z
2023-06-14T05:28:37Z,42.805,6.029,13.3021,4.60075,2470.824,2023-6-14T07:30:51Z
2023-06-14T05:31:40Z,42.805,6.029,13.3019,4.60076,2470.81,2023-6-14T07:33:54Z
2023-06-14T05:34:43Z,42.805,6.029,13.3018,4.60079,2470.81,2023-6-14T07:36:57Z
2023-06-14T05:37:46Z,42.805,6.029,13.3019,4.60076,2470.787,2023-6-14T07:40:00Z
2023-06-14T05:40:49Z,42.805,6.029,13.3016,4.60077,2470.787,2023-6-14T07:43:03Z
2023-06-14T05:43:52Z,42.805,6.029,13.3020,4.60076,2470.763,2023-6-14T07:46:07Z
2023-06-14T05:46:56Z,42.805,6.029,13.3019,4.60077,2470.833,2023-6-14T07:49:10Z
2023-06-14T05:49:59Z,42.805,6.029,13.3017,4.60080,2470.8,2023-6-14T07:52:13Z
2023-06-14T05:53:02Z,42.805,6.029,13.3021,4.60079,2470.787,2023-6-14T07:55:16Z
2023-06-14T05:56:05Z,42.805,6.029,13.3019,4.60076,2470.787,2023-6-14T07:58:19Z
2023-06-14T05:59:08Z,42.805,6.029,13.3022,4.60077,2470.787,2023-6-14T08:01:22Z
2023-06-14T06:02:11Z,42.805,6.029,13.3019,4.60076,2470.777,2023-6-14T08:04:25Z
2023-06-14T06:05:14Z,42.805,6.029,13.3021,4.60076,2470.787,2023-6-14T08:07:28Z
2023-06-14T06:08:17Z,42.805,6.029,13.3019,4.60078,2470.787,2023-6-14T08:10:31Z
2023-06-14T06:11:20Z,42.805,6.029,13.3019,4.60076,2470.763,2023-6-14T08:13:34Z
2023-06-14T06:14:23Z,42.805,6.029,13.3021,4.60077,2470.787,2023-6-14T08:16:37Z
2023-06-14T06:17:26Z,42.805,6.029,13.3021,4.60076,2470.787,2023-6-14T08:19:40Z
2023-06-14T06:20:30Z,42.805,6.029,13.3021,4.60081,2470.763,2023-6-14T08:22:44Z
2023-06-14T06:23:33Z,42.805,6.029,13.3019,4.60075,2470.74,2023-6-14T08:25:47Z
2023-06-14T06:26:36Z,42.805,6.029,13.3019,4.60075,2470.763,2023-6-14T08:28:50Z
2023-06-14T06:29:39Z,42.805,6.029,13.3015,4.60076,2470.824,2023-6-14T08:31:53Z
2023-06-14T06:32:44Z,42.805,6.029,13.3019,4.60077,2470.777,2023-6-14T08:34:58Z
2023-06-14T06:35:47Z,42.805,6.029,13.3019,4.60076,2470.763,2023-6-14T08:38:01Z
2023-06-14T06:38:50Z,42.805,6.029,13.3019,4.60076,2470.777,2023-6-14T08:41:04Z
2023-06-14T06:41:53Z,42.805,6.029,13.3016,4.60076,2470.74,2023-6-14T08:44:07Z
2023-06-14T06:44:56Z,42.805,6.029,13.3019,4.60075,2470.74,2023-6-14T08:47:10Z
2023-06-14T06:47:59Z,42.805,6.029,13.3019,4.60078,2470.787,2023-6-14T08:50:13Z
2023-06-14T06:51:02Z,42.805,6.029,13.3015,4.60077,2470.754,2023-6-14T08:53:16Z
2023-06-14T06:54:05Z,42.805,6.029,13.3019,4.60075,2470.74,2023-6-14T08:56:19Z
2023-06-14T06:57:08Z,42.805,6.029,13.3014,4.60074,2470.763,2023-6-14T08:59:22Z
2023-06-14T07:00:11Z,42.805,6.029,13.3017,4.60077,2470.777,2023-6-14T09:02:25Z
2023-06-14T07:03:15Z,42.805,6.029,13.3020,4.60077,2470.74,2023-6-14T09:05:29Z
2023-06-14T07:06:18Z,42.805,6.029,13.3019,4.60077,2470.74,2023-6-14T09:08:32Z
2023-06-14T07:09:21Z,42.805,6.029,13.3017,4.60076,2470.717,2023-6-14T09:11:35Z
2023-06-14T07:12:24Z,42.805,6.029,13.3020,4.60077,2470.74,2023-6-14T09:14:38Z
2023-06-14T07:15:27Z,42.805,6.029,13.3021,4.60076,2470.763,2023-6-14T09:17:41Z
2023-06-14T07:18:30Z,42.805,6.029,13.3016,4.60075,2470.763,2023-6-14T09:20:44Z
2023-06-14T07:21:33Z,42.805,6.029,13.3021,4.60076,2470.717,2023-6-14T09:23:47Z
2023-06-14T07:24:36Z,42.805,6.029,13.3019,4.60076,2470.74,2023-6-14T09:26:50Z
2023-06-14T07:27:39Z,42.805,6.029,13.3020,4.60075,2470.754,2023-6-14T09:29:53Z
2023-06-14T07:30:42Z,42.805,6.029,13.3019,4.60075,2470.73,2023-6-14T09:32:56Z
2023-06-14T07:33:45Z,42.805,6.029,13.3018,4.60076,2470.74,2023-6-14T09:35:59Z
2023-06-14T07:36:48Z,42.805,6.029,13.3019,4.60076,2470.717,2023-6-14T09:39:02Z
2023-06-14T07:39:52Z,42.805,6.029,13.3014,4.60074,2470.74,2023-6-14T09:42:06Z
2023-06-14T07:42:55Z,42.805,6.029,13.3020,4.60074,2470.707,2023-6-14T09:45:09Z
2023-06-14T07:45:58Z,42.805,6.029,13.3021,4.60076,2470.707,2023-6-14T09:48:12Z
2023-06-14T07:49:01Z,42.805,6.029,13.3018,4.60076,2470.717,2023-6-14T09:51:15Z
2023-06-14T07:52:04Z,42.805,6.029,13.3019,4.60075,2470.693,2023-6-14T09:54:18Z
2023-06-14T07:55:07Z,42.805,6.029,13.3021,4.60077,2470.717,2023-6-14T09:57:21Z
2023-06-14T07:58:10Z,42.805,6.029,13.3021,4.60076,2470.703,2023-6-14T10:00:24Z
2023-06-14T08:01:13Z,42.805,6.029,13.3021,4.60075,2470.717,2023-6-14T10:03:27Z
2023-06-14T08:04:16Z,42.805,6.029,13.3016,4.60077,2470.679,2023-6-14T10:06:30Z
2023-06-14T08:07:19Z,42.805,6.029,13.3018,4.60074,2470.717,2023-6-14T10:09:33Z
2023-06-14T08:10:22Z,42.805,6.029,13.3018,4.60077,2470.693,2023-6-14T10:12:36Z
2023-06-14T08:13:25Z,42.805,6.029,13.3017,4.60075,2470.717,2023-6-14T10:15:39Z
2023-06-14T08:16:29Z,42.805,6.029,13.3019,4.60074,2470.717,2023-6-14T10:18:43Z
2023-06-14T08:19:32Z,42.805,6.029,13.3017,4.60074,2470.693,2023-6-14T10:21:46Z
2023-06-14T08:22:35Z,42.805,6.029,13.3019,4.60074,2470.717,2023-6-14T10:24:49Z
2023-06-14T08:25:38Z,42.805,6.029,13.3017,4.60074,2470.646,2023-6-14T10:27:52Z
2023-06-14T08:28:41Z,42.805,6.029,13.3021,4.60077,2470.693,2023-6-14T10:30:55Z
2023-06-14T08:31:42Z,42.805,6.029,13.3021,4.60075,2470.717,2023-6-14T10:33:56Z
2023-06-14T08:34:45Z,42.805,6.029,13.3021,4.60075,2470.693,2023-6-14T10:37:00Z
2023-06-14T08:37:49Z,42.805,6.029,13.3019,4.60074,2470.693,2023-6-14T10:40:03Z
2023-06-14T08:40:52Z,42.805,6.029,13.3024,4.60077,2470.707,2023-6-14T10:43:06Z
2023-06-14T08:43:55Z,42.805,6.029,13.3017,4.60079,2470.684,2023-6-14T10:46:09Z
2023-06-14T08:46:58Z,42.805,6.029,13.3019,4.60074,2470.693,2023-6-14T10:49:12Z
2023-06-14T08:50:01Z,42.805,6.029,13.3019,4.60074,2470.646,2023-6-14T10:52:15Z
2023-06-14T08:53:04Z,42.805,6.029,13.3021,4.60077,2470.67,2023-6-14T10:55:18Z
2023-06-14T08:56:07Z,42.805,6.029,13.3018,4.60077,2470.693,2023-6-14T10:58:21Z
2023-06-14T08:59:10Z,42.805,6.029,13.3020,4.60077,2470.646,2023-6-14T11:01:24Z
2023-06-14T09:02:13Z,42.805,6.029,13.3019,4.60075,2470.717,2023-6-14T11:04:27Z
2023-06-14T09:05:16Z,42.805,6.029,13.3019,4.60074,2470.656,2023-6-14T11:07:30Z
2023-06-14T09:08:19Z,42.805,6.029,13.3016,4.60076,2470.67,2023-6-14T11:10:33Z
2023-06-14T09:11:22Z,42.805,6.029,13.3018,4.60075,2470.67,2023-6-14T11:13:37Z
2023-06-14T09:14:26Z,42.805,6.029,13.3019,4.60076,2470.646,2023-6-14T11:16:40Z
2023-06-14T09:17:29Z,42.805,6.029,13.3019,4.60075,2470.684,2023-6-14T11:19:43Z
2023-06-14T09:20:32Z,42.805,6.029,13.3021,4.60079,2470.67,2023-6-14T11:22:46Z
2023-06-14T09:23:35Z,42.805,6.029,13.3020,4.60079,2470.67,2023-6-14T11:25:49Z
2023-06-14T09:26:38Z,42.805,6.029,13.3021,4.60076,2470.646,2023-6-14T11:28:52Z
2023-06-14T09:29:41Z,42.805,6.029,13.3019,4.60076,2470.661,2023-6-14T11:31:55Z
2023-06-14T09:32:44Z,42.805,6.029,13.3021,4.60075,2470.693,2023-6-14T11:34:58Z
2023-06-14T09:35:47Z,42.805,6.029,13.3023,4.60075,2470.67,2023-6-14T11:38:01Z
2023-06-14T09:38:50Z,42.805,6.029,13.3017,4.60075,2470.67,2023-6-14T11:41:04Z
2023-06-14T09:41:53Z,42.805,6.029,13.3016,4.60077,2470.661,2023-6-14T11:44:07Z
2023-06-14T09:44:56Z,42.805,6.029,13.3018,4.60077,2470.67,2023-6-14T11:47:10Z
2023-06-14T09:48:00Z,42.805,6.029,13.3021,4.60077,2470.646,2023-6-14T11:50:14Z
2023-06-14T09:51:03Z,42.805,6.029,13.3019,4.60076,2470.661,2023-6-14T11:53:17Z
2023-06-14T09:54:06Z,42.805,6.029,13.3020,4.60078,2470.646,2023-6-14T11:56:20Z
2023-06-14T09:57:09Z,42.805,6.029,13.3016,4.60075,2470.646,2023-6-14T11:59:23Z
2023-06-14T10:00:12Z,42.805,6.029,13.3020,4.60075,2470.67,2023-6-14T12:02:26Z
2023-06-14T10:03:15Z,42.805,6.029,13.3023,4.60075,2470.67,2023-6-14T12:05:29Z
2023-06-14T10:06:18Z,42.805,6.029,13.3015,4.60078,2470.637,2023-6-14T12:08:32Z
2023-06-14T10:09:21Z,42.805,6.029,13.3016,4.60075,2470.637,2023-6-14T12:11:35Z
2023-06-14T10:12:24Z,42.805,6.029,13.3022,4.60075,2470.67,2023-6-14T12:14:38Z
2023-06-14T10:15:27Z,42.805,6.029,13.3021,4.60077,2470.646,2023-6-14T12:17:41Z
2023-06-14T10:18:30Z,42.805,6.029,13.3021,4.60076,2470.646,2023-6-14T12:20:44Z
2023-06-14T10:21:34Z,42.805,6.029,13.3023,4.60075,2470.646,2023-6-14T12:23:48Z
2023-06-14T10:24:37Z,42.805,6.029,13.3019,4.60075,2470.624,2023-6-14T12:26:51Z
2023-06-14T10:27:40Z,42.805,6.029,13.3019,4.60075,2470.6,2023-6-14T12:29:54Z
2023-06-14T10:30:41Z,42.805,6.029,13.3023,4.60075,2470.646,2023-6-14T12:32:55Z
2023-06-14T10:33:44Z,42.805,6.029,13.3018,4.60077,2470.637,2023-6-14T12:35:58Z
2023-06-14T10:36:47Z,42.805,6.029,13.3022,4.60079,2470.646,2023-6-14T12:39:01Z
2023-06-14T10:39:50Z,42.805,6.029,13.3022,4.60080,2470.624,2023-6-14T12:42:04Z
2023-06-14T10:42:53Z,42.805,6.029,13.3020,4.60077,2470.624,2023-6-14T12:45:07Z
2023-06-14T10:45:56Z,42.805,6.029,13.3023,4.60077,2470.624,2023-6-14T12:48:11Z
2023-06-14T10:49:00Z,42.805,6.029,13.3021,4.60077,2470.624,2023-6-14T12:51:14Z
2023-06-14T10:52:03Z,42.805,6.029,13.3019,4.60078,2470.624,2023-6-14T12:54:17Z
2023-06-14T10:55:06Z,42.805,6.029,13.3018,4.60079,2470.646,2023-6-14T12:57:20Z
2023-06-14T10:58:09Z,42.805,6.029,13.3023,4.60079,2470.614,2023-6-14T13:00:23Z
2023-06-14T11:01:12Z,42.805,6.029,13.3027,4.60078,2470.646,2023-6-14T13:03:26Z
2023-06-14T11:04:15Z,42.805,6.029,13.3023,4.60079,2470.637,2023-6-14T13:06:29Z
2023-06-14T11:07:18Z,42.805,6.029,13.3021,4.60079,2470.637,2023-6-14T13:09:32Z
2023-06-14T11:10:21Z,42.805,6.029,13.3021,4.60078,2470.6,2023-6-14T13:12:35Z
2023-06-14T11:13:24Z,42.805,6.029,13.3021,4.60080,2470.624,2023-6-14T13:15:38Z
2023-06-14T11:16:27Z,42.805,6.029,13.3018,4.60077,2470.646,2023-6-14T13:18:41Z
2023-06-14T11:19:30Z,42.805,6.029,13.3024,4.60077,2470.624,2023-6-14T13:21:44Z
2023-06-14T11:22:34Z,42.805,6.029,13.3018,4.60077,2470.624,2023-6-14T13:24:48Z
2023-06-14T11:25:37Z,42.805,6.029,13.3021,4.60079,2470.646,2023-6-14T13:27:51Z
2023-06-14T11:28:40Z,42.805,6.029,13.3017,4.60079,2470.624,2023-6-14T13:30:54Z
2023-06-14T11:31:43Z,42.805,6.029,13.3022,4.60075,2470.624,2023-6-14T13:33:57Z
2023-06-14T11:34:46Z,42.805,6.029,13.3017,4.60076,2470.661,2023-6-14T13:37:00Z
2023-06-14T11:37:49Z,42.805,6.029,13.3019,4.60074,2470.646,2023-6-14T13:40:03Z
2023-06-14T11:40:52Z,42.805,6.029,13.3021,4.60079,2470.646,2023-6-14T13:43:06Z
2023-06-14T11:43:55Z,42.805,6.029,13.3018,4.60078,2470.6,2023-6-14T13:46:09Z
2023-06-14T11:46:58Z,42.805,6.029,13.3020,4.60077,2470.646,2023-6-14T13:49:12Z
2023-06-14T11:50:01Z,42.805,6.029,13.3021,4.60077,2470.661,2023-6-14T13:52:15Z
2023-06-14T11:53:04Z,42.805,6.029,13.3019,4.60078,2470.637,2023-6-14T13:55:18Z
2023-06-14T11:56:07Z,42.805,6.029,13.3022,4.60078,2470.646,2023-6-14T13:58:22Z
2023-06-14T11:59:11Z,42.805,6.029,13.3021,4.60077,2470.646,2023-6-14T14:01:25Z
2023-06-14T12:02:14Z,42.805,6.029,13.3022,4.60078,2470.624,2023-6-14T14:04:28Z
2023-06-14T12:05:17Z,42.805,6.029,13.3021,4.60077,2470.646,2023-6-14T14:07:31Z
2023-06-14T12:08:20Z,42.805,6.029,13.3021,4.60077,2470.624,2023-6-14T14:10:34Z
2023-06-14T12:11:23Z,42.805,6.029,13.3019,4.60076,2470.646,2023-6-14T14:13:37Z
2023-06-14T12:14:26Z,42.805,6.029,13.3019,4.60075,2470.614,2023-6-14T14:16:40Z
2023-06-14T12:17:29Z,42.805,6.029,13.3017,4.60079,2470.661,2023-6-14T14:19:43Z
2023-06-14T12:20:32Z,42.805,6.029,13.3023,4.60076,2470.67,2023-6-14T14:22:46Z
2023-06-14T12:23:35Z,42.805,6.029,13.3021,4.60079,2470.624,2023-6-14T14:25:49Z
2023-06-14T12:26:38Z,42.805,6.029,13.3022,4.60077,2470.661,2023-6-14T14:28:52Z
2023-06-14T12:29:41Z,42.805,6.029,13.3019,4.60078,2470.624,2023-6-14T14:31:56Z
2023-06-14T12:32:45Z,42.805,6.029,13.3019,4.60075,2470.67,2023-6-14T14:34:59Z
2023-06-14T12:35:48Z,42.805,6.029,13.3019,4.60078,2470.646,2023-6-14T14:38:02Z
2023-06-14T12:38:51Z,42.805,6.029,13.3021,4.60077,2470.637,2023-6-14T14:41:05Z
2023-06-14T12:41:54Z,42.805,6.029,13.3019,4.60077,2470.646,2023-6-14T14:44:08Z
2023-06-14T12:44:57Z,42.805,6.029,13.3021,4.60081,2470.646,2023-6-14T14:47:11Z
2023-06-14T12:48:00Z,42.805,6.029,13.3021,4.60077,2470.661,2023-6-14T14:50:14Z
2023-06-14T12:51:03Z,42.805,6.029,13.3021,4.60080,2470.684,2023-6-14T14:53:17Z
2023-06-14T12:54:06Z,42.805,6.029,13.3017,4.60077,2470.646,2023-6-14T14:56:20Z
2023-06-14T12:57:09Z,42.805,6.029,13.3021,4.60078,2470.661,2023-6-14T14:59:23Z
2023-06-14T13:00:12Z,42.805,6.029,13.3020,4.60077,2470.684,2023-6-14T15:02:26Z
2023-06-14T13:03:15Z,42.805,6.029,13.3019,4.60081,2470.67,2023-6-14T15:05:29Z
2023-06-14T13:06:18Z,42.805,6.029,13.3020,4.60076,2470.67,2023-6-14T15:08:33Z
2023-06-14T13:09:22Z,42.805,6.029,13.3021,4.60076,2470.624,2023-6-14T15:11:36Z
2023-06-14T13:12:25Z,42.805,6.029,13.3020,4.60078,2470.656,2023-6-14T15:14:39Z
2023-06-14T13:15:28Z,42.805,6.029,13.3021,4.60079,2470.693,2023-6-14T15:17:42Z
2023-06-14T13:18:31Z,42.805,6.029,13.3019,4.60079,2470.67,2023-6-14T15:20:45Z
2023-06-14T13:21:34Z,42.805,6.029,13.3020,4.60078,2470.684,2023-6-14T15:23:48Z
2023-06-14T13:24:37Z,42.805,6.029,13.3021,4.60078,2470.67,2023-6-14T15:26:51Z
2023-06-14T13:27:40Z,42.805,6.029,13.3017,4.60079,2470.661,2023-6-14T15:29:54Z
2023-06-14T13:30:43Z,42.805,6.029,13.3020,4.60081,2470.703,2023-6-14T15:32:57Z
2023-06-14T13:33:46Z,42.805,6.029,13.3019,4.60082,2470.707,2023-6-14T15:36:00Z
2023-06-14T13:36:49Z,42.805,6.029,13.3023,4.60079,2470.67,2023-6-14T15:39:03Z
2023-06-14T13:39:52Z,42.805,6.029,13.3021,4.60080,2470.693,2023-6-14T15:42:07Z
2023-06-14T13:42:56Z,42.805,6.029,13.3018,4.60079,2470.646,2023-6-14T15:45:10Z
2023-06-14T13:45:59Z,42.805,6.029,13.3022,4.60079,2470.646,2023-6-14T15:48:13Z
2023-06-14T13:49:02Z,42.805,6.029,13.3018,4.60079,2470.67,2023-6-14T15:51:16Z
2023-06-14T13:52:05Z,42.805,6.029,13.3020,4.60078,2470.73,2023-6-14T15:54:19Z
2023-06-14T13:55:08Z,42.805,6.029,13.3020,4.60077,2470.73,2023-6-14T15:57:22Z
2023-06-14T13:58:11Z,42.805,6.029,13.3021,4.60079,2470.717,2023-6-14T16:00:25Z
2023-06-14T14:01:14Z,42.805,6.029,13.3024,4.60078,2470.693,2023-6-14T16:03:28Z
2023-06-14T14:04:17Z,42.805,6.029,13.3018,4.60078,2470.707,2023-6-14T16:06:31Z
2023-06-14T14:07:20Z,42.805,6.029,13.3024,4.60077,2470.717,2023-6-14T16:09:34Z
2023-06-14T14:10:23Z,42.805,6.029,13.3024,4.60080,2470.74,2023-6-14T16:12:37Z
2023-06-14T14:13:26Z,42.805,6.029,13.3016,4.60079,2470.693,2023-6-14T16:15:40Z
2023-06-14T14:16:30Z,42.805,6.029,13.3019,4.60079,2470.717,2023-6-14T16:18:44Z
2023-06-14T14:19:33Z,42.805,6.029,13.3023,4.60079,2470.717,2023-6-14T16:21:47Z
2023-06-14T14:22:36Z,42.805,6.029,13.3020,4.60079,2470.726,2023-6-14T16:24:50Z
2023-06-14T14:25:39Z,42.805,6.029,13.3020,4.60078,2470.73,2023-6-14T16:27:53Z
2023-06-14T14:28:42Z,42.805,6.029,13.3021,4.60076,2470.74,2023-6-14T16:30:56Z
2023-06-14T14:31:44Z,42.805,6.029,13.3016,4.60076,2470.693,2023-6-14T16:33:58Z
2023-06-14T14:34:47Z,42.805,6.029,13.3016,4.60077,2470.703,2023-6-14T16:37:01Z
2023-06-14T14:37:50Z,42.805,6.029,13.3021,4.60080,2470.717,2023-6-14T16:40:04Z
2023-06-14T14:40:53Z,42.805,6.029,13.3021,4.60077,2470.763,2023-6-14T16:43:07Z
2023-06-14T14:43:56Z,42.805,6.029,13.3019,4.60079,2470.693,2023-6-14T16:46:10Z
2023-06-14T14:46:59Z,42.805,6.029,13.3015,4.60077,2470.717,2023-6-14T16:49:13Z
2023-06-14T14:50:02Z,42.805,6.029,13.3018,4.60078,2470.74,2023-6-14T16:52:16Z
2023-06-14T14:53:05Z,42.805,6.029,13.3017,4.60077,2470.754,2023-6-14T16:55:19Z
2023-06-14T14:56:08Z,42.805,6.029,13.3016,4.60077,2470.74,2023-6-14T16:58:22Z
2023-06-14T14:59:11Z,42.805,6.029,13.3020,4.60077,2470.763,2023-6-14T17:01:26Z
2023-06-14T15:02:15Z,42.805,6.029,13.3019,4.60078,2470.777,2023-6-14T17:04:29Z
2023-06-14T15:05:18Z,42.805,6.029,13.3023,4.60078,2470.74,2023-6-14T17:07:32Z
2023-06-14T15:08:21Z,42.805,6.029,13.3021,4.60079,2470.74,2023-6-14T17:10:35Z
2023-06-14T15:11:24Z,42.805,6.029,13.3019,4.60077,2470.74,2023-6-14T17:13:38Z
2023-06-14T15:14:27Z,42.805,6.029,13.3020,4.60079,2470.763,2023-6-14T17:16:41Z